Location: Kawakawa
(35.3830°S, 174.0670°E)
Time: 18:02:25
(UTC+13:00)

A-11 Canister half - Pass Details

Date: 06 December 2019
Orbit: 1525 x 1684 km, 47.3° (Epoch: 28 January)

Event Time Altitude Azimuth Distance (km) Brightness Sun altitude
Rises 05:09:48 0° 245° (WSW) 4,778 11.3 -9.7°
Reaches altitude 10° 05:13:36 10° 257° (WSW) 3,814 10.7 -9.1°
Maximum altitude 05:20:51 24° 306° (NW) 2,875 9.8 -7.9°
Drops below altitude 10° 05:28:17 10° 356° (N) 3,885 10.8 -6.7°
Sets 05:32:15 0° 8° (N) 4,886 11.4 -6.0°
